EHI
0 0 0 0 0 0 1 2 3 6 6 5 4 4 6 7 7 6 6 6 5 2 1 0 0 0 0 0 0 1 2 3 4 4 3 3 3 3 1 1 2 2 2
0 0 0 0 0 0 0 1 3 5 6 4 2 3 4 5 6 6 6 5 4 1 0 0 0 0 0 0 0 0 1 1 2 2 2 3 3 3 2 3 5 4 4
0 0 0 0 0 0 0 2 3 4 4 3 2 1 1 2 4 5 4 3 2 1 0 0 0 0 0 0 0 0 0 0 0 1 2 2 2 3 3 4 5 5 3
0 0 0 1 0 0 1 2 3 4 4 2 2 1 0 1 2 3 2 1 1 0 0 0 0 0 0 0 0 0 0 0 1 1 2 2 2 2 3 3 2 2 1
1 0 1 2 2 1 1 1 2 3 3 2 2 2 1 0 1 1 0 0 0 0 0 0 1 1 0 0 0 0 0 0 1 1 1 1 1 2 2 1 0 0 0
1 0 1 3 3 3 3 2 3 3 3 3 3 3 1 0 0 0 0 0 0 0 0 0 1 1 0 0 0 0 0 1 1 1 1 1 2 1 1 0 0 0 0
2 1 2 4 4 4 4 4 4 3 3 3 3 2 1 0 0 0 0 0 0 0 0 0 1 1 0 0 1 0 1 2 1 1 2 3 4 4 1 0 0 0 0
5 4 3 4 3 3 4 6 5 3 3 3 3 1 1 0 0 0 0 0 0 0 0 0 0 0 0 0 0 0 1 2 1 1 2 3 6 6 3 1 0 0 0
8 6 3 2 2 2 3 4 4 2 2 3 2 1 0 0 0 0 0 0 0 0 0 0 0 1 1 0 0 1 2 3 2 1 1 3 7 7 4 1 0 0 0
8 5 2 2 2 2 1 3 3 1 1 2 1 0 0 0 0 1 1 1 1 1 0 0 1 2 3 4 4 5 6 5 3 2 2 5 7 7 4 1 0 0 0
7 5 3 2 3 2 1 3 2 1 1 1 1 1 1 1 1 3 4 6 6 4 3 3 4 5 7 8 9 11 10 5 2 1 4 9 12 11 6 3 1 1 1
7 5 3 2 2 2 2 3 2 3 5 4 4 3 3 2 2 4 7 10 9 8 8 8 7 7 7 8 11 12 8 3 1 2 7 16 18 14 10 7 4 2 2
7 5 2 1 2 3 4 3 3 5 9 8 7 5 3 2 2 4 7 9 9 8 9 9 6 4 4 6 9 10 6 3 1 2 9 16 18 16 12 9 6 5 4
5 4 3 4 7 9 8 4 2 5 8 8 7 4 2 2 1 3 6 6 6 6 6 6 4 3 4 5 8 10 8 5 3 4 9 14 16 16 14 11 9 8 7
4 4 5 9 14 14 11 7 4 5 6 6 6 5 3 1 0 1 3 4 4 4 5 5 6 7 7 8 9 12 11 8 6 7 10 15 19 20 19 16 14 12 11
10 8 7 11 15 14 9 7 6 6 5 6 8 8 5 3 1 1 2 3 4 6 8 10 12 13 12 13 14 16 15 11 10 12 13 16 21 23 22 21 19 17 16
18 16 10 8 11 10 6 4 4 4 5 6 9 10 9 6 5 4 4 4 5 10 15 16 16 16 15 14 15 16 17 15 14 16 16 16 19 22 22 23 23 22 21
27 24 15 9 10 10 5 3 3 4 6 7 8 10 9 7 6 6 7 7 7 12 17 16 14 14 12 9 10 14 18 18 17 18 19 19 19 20 23 24 26 26 25
37 32 21 14 15 13 8 6 7 8 9 7 7 10 10 7 6 7 9 10 9 11 12 10 11 14 12 8 6 10 15 19 20 20 18 18 19 21 22 23 25 26 27
46 42 32 25 23 19 13 10 10 11 11 10 11 14 13 8 8 9 11 11 10 10 9 7 10 15 16 12 8 7 11 19 25 23 17 15 15 16 17 19 21 23 25
49 49 45 39 34 26 18 14 12 11 12 14 18 23 19 11 8 10 12 12 10 10 9 8 9 13 15 13 9 7 9 15 22 23 17 13 11 12 15 19 24 25 24
52 51 50 46 41 33 23 17 12 10 12 15 22 28 23 13 8 9 13 13 11 12 13 13 12 12 12 12 10 7 6 8 12 14 15 13 12 13 17 23 29 30 28
52 51 48 48 46 39 30 20 14 11 11 14 21 26 23 17 12 11 14 15 13 14 17 19 19 17 15 13 11 8 5 5 5 7 9 11 13 16 18 21 26 29 29
49 50 52 53 51 46 36 25 18 14 12 14 20 25 26 21 17 15 15 16 15 15 17 19 20 20 18 15 13 11 9 8 8 8 8 9 11 14 17 18 19 22 24
47 51 58 61 58 51 40 29 23 18 16 17 22 27 27 24 20 17 17 18 18 17 16 18 19 19 17 15 14 13 14 13 11 11 9 9 8 11 16 19 19 18 19
47 52 60 66 64 55 42 32 27 23 20 20 23 26 25 22 20 19 20 22 22 17 16 19 20 18 16 15 14 15 15 14 12 12 11 9 7 9 16 22 22 19 16
Wind_Speed
11 13 14 15 16 16 16 16 16 16 16 16 16 16 16 16 16 15 15 14 14 13 13 13 12 12 12 12 12 11 11 11 12 12 12 12 11 11 10 10 11 10 13
14 14 14 15 15 15 15 15 15 15 15 15 15 15 15 15 15 14 14 13 13 13 13 12 12 11 11 10 10 10 9 9 10 10 11 11 10 10 9 10 11 9 12
15 14 14 14 14 15 14 14 14 14 15 14 14 14 14 14 13 13 13 13 13 13 12 12 11 10 10 9 8 8 7 7 7 7 8 7 8 10 10 12 12 12 11
14 12 13 14 14 14 14 13 13 14 14 13 13 13 13 13 13 13 12 12 12 12 11 10 10 10 9 8 7 6 5 4 4 4 3 5 7 10 10 11 11 11 10
13 13 13 14 14 14 13 13 12 12 13 13 12 12 12 12 12 12 11 11 11 11 10 10 10 9 8 7 5 3 2 1 2 3 2 6 7 10 10 10 10 10 9
14 14 14 14 14 13 13 12 12 12 12 11 11 11 11 11 11 11 10 10 10 10 9 9 9 8 7 6 4 2 1 3 4 2 4 8 8 9 10 9 9 9 8
14 14 14 14 14 13 12 12 12 11 10 10 11 10 10 10 10 10 10 9 9 9 8 8 8 7 6 4 2 1 3 5 5 1 5 8 8 10 9 9 8 8 7
14 14 13 14 14 13 12 12 11 11 10 10 10 10 9 9 9 8 9 8 8 7 7 7 6 5 4 2 0 2 4 7 3 3 6 9 10 10 10 9 8 7 7
13 13 12 12 11 12 11 10 10 10 10 9 9 9 9 8 8 8 8 7 6 6 5 5 4 4 3 1 2 3 5 6 4 1 6 7 10 11 10 9 8 7 7
11 11 11 11 10 10 9 10 10 10 10 9 9 9 8 8 8 8 8 6 6 5 5 4 3 3 2 3 4 4 6 6 3 3 5 8 11 11 10 9 8 7 7
9 8 9 9 10 9 10 11 10 11 10 10 9 10 9 5 6 6 7 7 6 5 4 4 4 4 4 5 6 6 5 3 1 3 5 11 11 10 10 9 8 7 7
9 8 7 7 8 7 7 8 6 7 8 6 5 7 5 3 3 6 8 8 7 6 5 6 6 6 6 4 6 6 3 4 1 3 6 12 11 10 9 8 8 7 7
10 8 8 7 6 5 5 5 3 3 5 4 5 4 3 2 3 4 4 5 5 6 5 5 6 4 4 3 3 4 3 2 1 4 7 11 10 10 9 8 8 7 7
10 9 8 8 6 4 4 3 4 3 3 3 4 3 2 1 1 2 2 3 3 3 3 2 2 3 2 1 1 2 1 1 2 4 6 11 10 10 9 9 9 8 8
10 8 8 8 6 4 3 1 3 3 4 4 3 2 2 2 2 2 1 1 1 1 2 2 2 1 1 2 2 2 2 1 1 4 5 10 11 10 10 9 9 9 9
9 8 8 9 7 5 3 1 1 3 3 3 3 3 1 2 1 1 1 1 1 1 1 1 2 1 2 2 2 2 1 1 2 3 5 7 11 11 10 10 10 10 10
9 8 8 8 8 6 5 3 2 2 3 2 3 3 2 2 2 1 1 1 1 1 1 1 2 1 2 2 2 2 2 2 2 3 4 5 6 10 11 11 11 11 11
10 8 7 8 9 7 4 3 2 2 2 2 3 3 3 3 2 1 2 2 2 2 1 2 2 2 1 1 1 2 2 2 3 3 4 4 4 5 9 12 11 11 11
9 9 7 5 8 7 5 3 2 2 2 2 3 3 3 4 3 3 2 1 3 2 2 2 1 1 1 1 2 3 2 2 3 4 3 4 4 5 5 9 13 12 12
10 9 8 6 6 6 5 2 1 2 2 2 2 3 4 3 3 2 2 3 3 1 1 1 0 1 2 2 4 2 2 3 3 2 3 3 3 4 5 6 7 9 12
11 9 8 8 7 5 4 4 3 3 3 3 3 4 4 3 3 2 2 1 2 1 1 1 0 2 2 2 1 2 2 4 3 2 3 3 3 3 4 5 5 4 5
11 10 9 8 8 7 5 3 3 3 3 3 2 4 4 3 3 3 3 3 2 2 1 2 2 2 2 2 1 1 1 2 2 3 2 3 2 2 3 5 5 4 4
12 11 10 9 8 7 6 4 3 3 2 2 3 3 3 3 3 2 2 2 1 2 2 3 2 2 2 2 1 1 1 1 2 2 2 2 2 2 2 3 4 4 5
12 12 10 9 8 8 6 5 6 5 4 4 3 3 4 4 3 3 3 3 2 2 2 3 2 2 2 2 2 2 2 1 1 1 2 2 3 3 3 2 2 3 4
12 12 11 9 8 7 7 6 5 5 4 3 3 3 4 4 4 4 3 2 2 2 2 2 1 2 2 2 2 2 2 2 3 2 2 2 2 2 3 3 2 2 4
11 11 11 9 8 8 8 7 6 6 5 4 4 4 4 3 4 4 4 3 3 2 2 2 2 3 2 3 3 3 2 2 2 2 2 3 2 2 3 2 3 3 3
Wind_Direction
112 114 113 110 110 108 107 106 105 103 101 98 96 94 92 92 91 92 94 95 96 96 95 96 94 90 88 88 88 90 93 94 95 97 97 97 96 96 98 103 103 98 102
115 117 115 112 112 110 109 107 106 105 102 100 98 97 95 94 94 94 95 95 96 96 96 96 96 95 94 94 95 98 101 105 109 113 111 105 101 97 92 92 96 103 107
114 117 116 114 114 112 111 110 109 107 105 103 101 99 98 97 97 97 96 97 96 97 97 97 98 98 99 99 100 105 111 117 128 135 135 119 109 102 98 97 102 108 108
117 119 117 117 115 114 113 113 112 111 109 107 105 104 102 101 100 99 99 99 98 98 98 97 99 101 102 102 103 113 126 137 156 176 167 126 114 108 108 109 109 111 111
115 114 118 121 118 117 116 116 115 113 112 111 110 108 106 104 102 102 102 101 100 100 99 98 98 98 98 101 106 114 135 179 233 250 125 102 101 116 116 116 116 117 117
118 117 123 124 122 122 122 121 119 116 115 115 114 111 109 106 105 104 103 102 100 101 99 99 100 100 99 100 100 95 316 298 295 244 126 114 112 121 121 123 123 123 122
121 120 126 127 126 125 125 126 124 121 120 119 118 114 111 108 107 107 106 103 101 103 104 103 103 105 103 98 88 0 317 310 284 216 113 110 118 126 126 125 127 130 130
119 121 126 131 130 129 129 129 130 130 128 124 122 120 119 119 119 116 111 108 105 106 109 110 111 111 110 107 70 305 307 301 311 75 103 112 127 131 130 130 132 134 135
121 127 134 135 134 133 133 134 136 137 136 133 130 132 133 133 133 127 120 117 114 113 117 119 122 124 132 167 240 275 291 300 302 141 110 113 131 133 133 135 137 137 139
124 130 137 142 143 148 144 148 148 147 146 146 146 149 151 151 150 147 139 133 131 129 133 141 148 160 184 217 238 261 283 298 259 118 108 125 137 137 140 144 147 149 151
121 129 140 142 150 153 151 153 157 156 158 161 165 170 174 177 168 164 140 145 152 158 167 181 192 203 216 222 230 249 274 269 222 108 112 135 145 145 149 154 160 163 167
134 133 135 141 147 153 149 144 161 166 161 180 170 175 190 180 157 143 143 158 171 180 195 213 227 234 233 224 215 225 245 242 178 121 131 146 152 154 157 164 171 175 180
139 139 142 139 139 140 127 148 153 149 151 170 163 176 174 162 153 136 154 165 182 192 206 205 223 235 227 215 206 205 217 228 153 121 141 153 160 165 168 174 180 186 192
142 146 143 131 118 109 116 136 146 152 155 154 159 181 160 156 140 142 161 174 178 192 193 198 206 227 240 244 246 230 242 265 111 122 152 163 168 174 178 184 190 196 200
145 145 133 119 113 107 99 163 152 145 142 147 151 158 164 143 137 140 144 180 189 182 175 205 227 227 246 235 242 216 222 231 158 141 152 173 177 183 189 194 200 205 208
145 142 131 129 128 135 157 190 132 130 137 144 146 143 167 133 117 121 163 276 270 224 183 212 222 210 243 240 243 232 220 208 181 160 155 181 189 191 194 199 204 209 212
148 146 142 148 148 160 169 185 161 156 146 144 138 141 168 134 143 151 213 230 245 248 212 233 243 224 240 242 232 240 227 228 199 184 176 181 189 199 200 202 207 210 214
151 151 161 166 154 163 177 184 169 147 136 162 158 149 165 151 176 214 223 213 229 234 217 223 236 241 253 262 261 261 230 223 213 210 200 188 183 188 200 207 209 210 214
151 153 164 166 153 162 171 186 195 145 170 187 174 161 168 182 191 218 225 212 245 239 229 248 174 271 281 276 259 236 232 220 214 221 209 205 192 185 182 201 209 211 214
153 156 160 165 156 160 165 175 194 177 189 205 182 160 166 193 201 223 220 219 248 256 263 291 332 281 257 257 271 272 249 234 221 213 220 219 208 199 188 188 196 212 216
161 163 164 171 164 167 171 178 184 192 201 210 189 165 175 202 203 221 249 235 252 242 248 257 266 270 264 257 278 284 252 241 225 203 219 219 214 206 193 183 188 195 196
168 169 170 178 174 178 181 185 193 191 202 203 196 159 184 192 206 218 211 230 223 216 223 256 242 267 276 261 250 283 291 282 272 226 213 216 211 207 208 199 185 187 190
177 178 179 183 180 185 185 182 198 187 211 214 181 171 188 198 208 245 209 242 237 212 197 229 233 243 266 277 254 225 265 284 294 264 245 223 211 223 233 211 192 186 189
180 180 181 181 181 181 189 194 198 196 201 213 193 180 183 199 220 221 220 230 244 258 188 233 182 244 256 275 269 233 228 213 255 289 275 248 222 220 222 234 199 182 182
183 180 177 174 178 179 190 199 205 212 207 209 199 184 191 192 212 221 212 220 224 254 221 245 214 248 256 271 285 271 248 232 239 241 270 277 261 230 205 209 202 190 187
183 180 172 168 176 183 193 200 204 215 218 218 212 193 201 203 207 212 208 206 216 237 234 230 238 246 251 273 290 291 276 255 253 243 256 267 267 261 220 196 200 196 195